Disclaimer

Please do not use the information listed here in-flight or in-navigation, as they are not provided to us by the airports but are provided by volunteers, so they might be outdated.

Search


Regions


Airport information page

No radio frequency information is available.

Airport informations:
Latitude: 06° 11' 22.80" N
Longitude: 100° 23' 53.46" E
Elevation: 15 feet - 5 meters
Operating hours: Remarks
Operating agency: Military-civil joint use airport
Timezone: UTC+8
Fuel: Unknown fuel type or whether there is any fuel.

Runway information:
04/22 - 9005 x 151 feet< - >2745 x 46 meters

Recent METARs:
WMKA 221900Z 00000KT 9999 FEW030 SCT140 BKN280 24/23 Q1011
WMKA 222000Z VRB02KT 9999 FEW030 SCT140 BKN280 24/23 Q1011
WMKA 222000Z VRB02KT 9999 FEW030 SCT140 BKN280 24/23 Q1011

Airport on the map: